Location: Illien Serpil
(48.3500°N, 4.4333°W)
Time: 13:35:36
(UTC+00:00)

Daily predictions for brighter satellites

Satellite Brightness Start Highest point End
(mag) Time Altitude Azimuth Time Altitude Azimuth Time Altitude Azimuth
BREEZE-M DEB (TANK) 4.2 19:57:28 10° WNW 20:01:57 88° N 20:19:42 10° ESE
ERS-2 3.1 20:20:08 10° N 20:23:42 53° WNW 20:27:14 10° SSW
Cosmos 1606 3.3 20:20:52 10° SSW 20:24:35 61° WNW 20:28:22 10° N
Cosmos 2278 Rocket 3.5 20:20:42 10° SE 20:24:36 19° E 20:28:31 10° NE
BREEZE-M DEB (TANK) 1.5 20:21:59 10° W 20:24:52 66° N 20:26:52 10° E
Cosmos 1602 4.3 20:21:30 10° N 20:25:12 41° ENE 20:28:53 10° SSE
USA 305 3.7 20:21:57 10° WNW 20:26:06 48° NNE 20:30:15 10° E
Cosmos 1782 3.7 20:24:03 10° SSE 20:27:35 31° E 20:31:08 10° NNE
Cosmos 1844 Rocket 2.9 20:22:50 10° SSW 20:28:25 81° WNW 20:34:03 10° NNE
Landsat 7 4.3 20:23:54 10° SE 20:28:26 45° ENE 20:32:59 10° N
IGS 5A 3.9 20:25:20 10° SE 20:29:19 48° ENE 20:33:19 10° N
Cosmos 1242 Rocket 2.7 20:26:34 10° S 20:30:02 50° E 20:33:29 10° NNE
Intercosmos 25 Rocket 4.3 20:24:22 10° NNW 20:30:43 69° W 20:34:42 10° S
BREEZE-M DEB (TANK) 4.2 20:20:55 10° WNW 20:32:14 56° SW 20:35:37 10° SE
Cosmos 1805 Rocket 3.9 20:28:30 10° NNW 20:32:51 70° W 20:37:10 10° S
CZ-4C R/B 3.2 20:28:39 10° NW 20:35:37 64° NE 20:43:47 10° SE
SJ-6B 4.2 20:34:17 10° SSW 20:37:56 38° W 20:41:42 10° NNW
BREEZE M DEB (TANK) 4.1 20:34:08 10° WSW 20:37:59 90° SSE 20:51:17 10° ENE
Cosmos 1633 Rocket 3.3 20:34:42 10° N 20:39:02 53° ENE 20:43:21 10° SSE
ATLAS 5 CENTAUR R/B 2.6 20:39:35 10° NW 20:45:07 66° SW 20:51:39 10° SSE
USA 306 3.4 20:41:18 10° WNW 20:45:30 55° NNE 20:49:43 10° E
Meteor 1-25 Rocket 4.5 20:41:28 10° NNW 20:47:21 81° W 20:53:11 10° S
Cosmos 1328 Rocket 3.9 20:45:47 10° SSE 20:50:00 46° E 20:54:14 10° NNE
Cosmos 1503 Rocket 4.0 20:44:52 10° SSW 20:50:02 87° ESE 20:55:18 10° NNE
Cosmos 1812 3.9 20:47:18 12° SE 20:50:05 25° E 20:53:18 10° NNE
Cosmos 1470 Rocket 4.2 20:47:00 10° N 20:51:18 43° ENE 20:55:01 13° SE
ARIANE 5 R/B 3.4 20:52:22 13° SE 20:55:47 37° ENE 20:59:47 10° N
Ariane Rocket 3.9 20:53:14 10° S 20:58:06 47° W 21:03:00 10° NNW
Cosmos 1666 3.9 20:55:03 10° NNE 20:58:16 26° ENE 21:00:29 15° ESE
Cosmos 1844 4.3 20:52:59 10° SW 20:58:39 61° WNW 21:04:16 10° NNE
CRYOSAT 2 4.5 20:54:03 10° SSE 20:58:51 62° E 21:03:42 10° N
CARTOSAT-1 4.3 20:56:42 14° SE 20:59:57 37° ENE 21:03:57 10° N
Cosmos 1833 Rocket 2.9 20:56:50 10° NNW 21:02:29 63° ENE 21:07:04 15° SE
Meteor 1-5 Rocket 4.4 20:58:58 10° N 21:04:13 50° ENE 21:08:22 16° SE
BREEZE-M R/B 1.5 21:02:09 10° WSW 21:04:42 84° S 21:07:15 10° ENE
Cosmos 1933 Rocket 4.2 21:01:27 10° N 21:05:32 39° ENE 21:08:26 17° SE
Cosmos 1437 2.4 21:05:01 13° S 21:07:23 57° E 21:10:11 10° NNE
Cosmos 1666 Rocket 3.9 21:03:05 10° NNW 21:07:28 66° W 21:11:46 10° S
Cosmos 1709 Rocket 4.1 21:03:25 10° N 21:09:33 79° W 21:15:38 10° S
USA 307 3.1 21:07:56 10° WNW 21:12:12 69° NNE 21:15:38 16° ESE
Cosmos 2184 Rocket 4.5 21:07:06 10° N 21:13:05 45° ENE 21:17:33 17° SE
CZ-2C R/B 3.6 21:10:46 10° NNE 21:15:17 74° ESE 21:19:49 10° S
Cosmos 2074 Rocket 4.4 21:11:30 10° N 21:17:39 51° ENE 21:22:14 18° SE
NOSS 3-4 (A) 4.1 21:11:05 10° NW 21:17:52 63° NE 21:24:06 16° ESE
NOSS 3-4 (C) 4.1 21:11:11 10° NW 21:17:59 62° NE 21:24:13 16° ESE
OBJECT-B 4.2 21:19:48 10° W 21:19:52 10° W 21:19:56 10° W
USA 245 1.7 21:20:53 35° SSE 21:21:39 85° ENE 21:23:55 10° NNW
SJ 16-02 1.9 21:19:30 17° SSE 21:22:22 37° ESE 21:26:29 10° NE
USA 308 2.9 21:21:32 10° WNW 21:25:50 79° NNE 21:28:44 20° ESE
NOSS 3-3 (A) 3.9 21:21:53 10° SW 21:27:41 90° N 21:34:23 10° NE
NOSS 3-3 (C) 3.9 21:21:59 10° SW 21:27:47 90° SE 21:34:30 10° NE
SPOT 1/Viking Rocket 3.7 21:23:33 14° S 21:28:02 78° WSW 21:33:15 10° NNW
Cosmos 1500 3.3 21:24:34 10° NNW 21:28:20 71° W 21:30:59 18° S
ATLAS 2AS CENTAUR R/B 3.4 21:24:00 10° NW 21:31:19 50° NE 21:37:04 15° ESE
Cosmos 2315 Rocket 4.4 21:28:40 10° SSW 21:35:01 69° WNW 21:41:25 10° N
Iridium 4 Rocket 3.9 21:30:59 18° SSE 21:35:15 61° E 21:41:06 10° N
CREW DRAGON DEMO-1 DEB 2.3 21:32:41 10° WNW 21:35:20 77° SSW 21:35:56 48° SE
Terra 2.3 21:33:01 22° SE 21:35:42 46° ENE 21:40:16 10° N
X-37B 2.5 21:34:30 10° WSW 21:36:43 17° SSW 21:36:59 17° SSW
USA 215 4.4 21:32:34 10° ENE 21:38:37 42° N 21:44:41 10° WNW
Cosmos 1151 Rocket 4.1 21:35:27 10° SSW 21:39:38 45° WNW 21:43:53 10° N
SPOT 5 3.1 21:38:32 23° SSE 21:41:47 73° ENE 21:47:04 10° N
Cosmos 2082 Rocket 2.3 21:36:50 10° NNW 21:42:27 66° ENE 21:45:50 24° SE
Cosmos 158 Rocket 3.9 21:39:20 10° NNW 21:44:13 67° ENE 21:46:51 27° SE
Resurs 01 Rocket 3.4 21:40:45 10° SSW 21:44:34 27° W 21:48:23 10° NW
Cosmos 2084 3.9 21:40:44 10° SW 21:44:51 63° NW 21:49:06 10° NE
Cosmos 2228 Rocket 3.5 21:45:34 28° SSE 21:47:26 45° E 21:51:41 10° NNE
Cosmos 44 4.4 21:43:14 10° NNW 21:48:24 41° NE 21:51:59 18° ESE
COSMOS 2406 3.5 21:43:23 10° NNW 21:49:00 63° WSW 21:52:37 22° S
Cosmos 1538 Rocket 4.3 21:50:37 10° NNW 21:55:56 64° WSW 21:59:07 24° S
Cosmos 1271 Rocket 2.7 21:54:20 29° S 21:56:18 76° E 22:00:19 10° NNE
Meteor 2-6 Rocket 4.2 21:54:18 12° SSW 21:59:17 79° WNW 22:04:52 10° N
BREEZE-M DEB (TANK) 4.0 21:49:55 10° W 21:59:47 60° NNW 22:02:46 10° ENE
Meteor 1-27 Rocket 4.0 21:58:45 26° SSE 22:01:56 56° E 22:07:44 10° NNE
CZ-4B DEB 4.2 22:04:46 56° SSE 22:05:21 79° ENE 22:08:35 10° N
Spot 2 Rocket 4.2 22:02:17 19° SSW 22:05:43 48° W 22:10:37 10° NNW
USA 305 3.0 22:01:58 10° WNW 22:06:10 58° SW 22:07:26 40° SSE
Cosmos 2278 Rocket 2.4 22:02:24 10° SSW 22:08:02 75° WNW 22:13:45 10° NNE
Milstar 3 4.4 21:59:53 10° SW 22:09:01 23° S 22:10:46 22° S
Cosmos 1937 Rocket 4.5 22:09:32 26° ESE 22:10:12 27° E 22:14:30 10° NE
SL-24 R/B - RUBIN 2 4.4 22:05:00 10° NW 22:10:32 56° NE 22:13:07 27° ESE
Cosmos 1515 Rocket 4.4 22:06:42 12° SSW 22:10:37 47° WNW 22:14:54 10° N
Cosmos 1680 Rocket 3.7 22:07:11 10° NNW 22:12:31 66° ENE 22:14:52 33° SE
ERS-1 Rocket 3.3 22:10:19 26° S 22:13:06 61° WSW 22:18:06 10° NNW
Cosmos 1869 Rocket 3.4 22:10:13 10° N 22:14:34 86° E 22:16:04 41° SSE
Cosmos 1943 Rocket 3.1 22:13:55 26° ESE 22:14:39 27° ESE 22:19:19 10° NE
Cosmos 2369 Rocket 3.9 22:17:10 16° E 22:17:10 16° E 22:20:21 10° ENE
Gbstr 26 Del rocket 4.3 22:10:23 10° WNW 22:18:03 74° NNE 22:23:48 13° E
Cosmos 1238 Rocket 4.4 22:17:03 10° N 22:23:00 44° ENE 22:25:13 30° ESE
CZ-4C R/B 3.7 22:17:22 10° NW 22:24:12 42° WSW 22:28:58 22° S
USA 306 3.3 22:21:21 10° WNW 22:25:26 44° SW 22:26:02 41° SSW
Meteor 1-11 Rocket 4.1 22:21:18 10° NNW 22:27:15 67° W 22:30:24 28° S
Okean 1 4.3 22:29:36 31° E 22:29:36 31° E 22:33:09 10° NNE
Cosmos 1340 Rocket 2.8 22:26:09 10° N 22:30:16 74° E 22:31:03 54° SE
Cosmos 1818 4.0 22:26:07 10° NNW 22:31:32 56° NE 22:34:12 29° ESE
ARIANE 5 R/B 4.3 22:29:54 16° SW 22:32:20 25° W 22:35:57 10° NW
Cosmos 1666 4.5 22:30:40 10° NW 22:33:44 24° W 22:35:19 18° SW
Cosmos 1707 Rocket 3.7 22:32:59 49° SE 22:33:47 58° E 22:38:09 10° NNE
SL-8 Rocket 4.3 22:32:44 10° N 22:38:58 56° ENE 22:41:32 34° SE
ALOS 2 4.1 22:41:06 22° E 22:42:19 25° ENE 22:45:56 10° N
Cosmos 1536 3.4 22:41:23 10° NNW 22:45:19 49° W 22:46:16 40° SW
Cosmos 1833 Rocket 4.3 22:41:32 10° NW 22:45:56 24° WSW 22:48:46 16° SW
Cosmos 1743 2.6 22:45:17 10° N 22:49:09 82° W 22:49:32 71° SSW
Cosmos 1898 Rocket 3.4 22:47:28 40° S 22:49:26 78° ESE 22:54:47 10° NNE
Cosmos 2154 Rocket 4.5 22:45:04 10° NNW 22:51:13 54° W 22:54:30 27° SSW
USA 307 4.0 22:48:11 10° WNW 22:51:43 31° SW 22:51:43 31° SW
H-2A R/B 4.4 22:48:47 10° N 22:52:48 45° WNW 22:54:45 26° SW
Cosmos 1975 3.3 22:56:26 10° N 23:00:17 44° ENE 23:00:28 44° E
SJ 16-02 3.3 22:57:14 10° WSW 23:01:02 27° WNW 23:04:52 10° N
RESURS DK-1 4.1 22:58:28 10° N 23:01:58 25° NE 23:03:31 20° E
Cosmos 990 Rocket 4.2 23:00:01 29° SW 23:02:41 70° WNW 23:07:57 10° NNE
Cosmos 1733 Rocket 2.9 23:00:00 10° N 23:04:20 86° W 23:04:54 67° S
USA 308 4.4 23:01:57 10° WNW 23:04:49 24° WSW 23:04:49 24° WSW
Cosmos 864 Rocket 4.5 23:00:14 10° N 23:06:24 69° E 23:08:29 42° SSE
Cosmos 1461 3.7 23:07:22 41° ESE 23:07:22 41° ESE 23:11:15 10° NE
Cosmos 2297 3.6 23:04:38 37° SSW 23:07:00 86° ESE 23:12:44 10° NNE
Cosmos 372 Rocket 4.2 23:07:02 45° ESE 23:07:29 46° ESE 23:12:21 10° NNE
Cosmos 1959 Rocket 4.5 23:02:54 10° N 23:09:10 75° E 23:11:16 43° SSE
Cosmos 1900 4.3 23:09:19 44° SSW 23:10:57 85° SE 23:16:02 10° NE
Cosmos 1544 4.3 23:07:51 10° NNW 23:11:05 31° W 23:11:19 31° W
Terra 3.5 23:11:54 20° SW 23:13:40 24° W 23:17:32 10° NW
ERBS 2.9 23:13:12 10° NW 23:16:00 54° NNW 23:16:00 54° NNW
Meteor 1-18 Rocket 4.2 23:16:27 49° SSE 23:17:55 72° E 23:23:31 10° NNE
Cosmos 1908 Rocket 3.9 23:14:48 10° N 23:19:12 53° ENE 23:19:43 50° ESE
USA 215 3.7 23:14:38 10° E 23:21:03 60° NNE 23:27:27 10° NW
ATLAS 2AS CENTAUR R/B 3.1 23:15:19 10° NW 23:22:21 51° WSW 23:24:29 38° SSW
Cosmos 1867 4.4 23:25:56 33° ESE 23:25:56 33° ESE 23:30:32 10° NE
Cosmos 2082 Rocket 3.8 23:21:49 10° NW 23:26:01 22° W 23:27:41 19° SW
Cosmos 44 4.0 23:24:38 10° NW 23:29:46 44° WSW 23:30:23 42° SW
Cosmos 2181 Rocket 3.9 23:29:26 42° SSW 23:31:40 79° W 23:37:50 10° N
Spot 4 4.0 23:34:25 54° SW 23:35:12 63° WSW 23:40:03 10° NNW
Cosmos 2084 Rocket 3.9 23:31:55 10° NW 23:35:44 49° WSW 23:35:44 49° WSW
ATLAS CENTAUR R/B 3.5 23:38:29 13° ENE 23:38:29 13° ENE 23:39:13 10° ENE
Cosmos 2366 rocket 4.0 23:32:31 10° NNW 23:38:40 69° W 23:40:37 44° SSW
Cosmos 1821 Rocket 4.3 23:32:54 10° N 23:39:14 59° ENE 23:41:25 40° SE
Cosmos 1862 Rocket 4.2 23:47:47 41° WSW 23:48:29 45° WNW 23:52:39 10° N
Cosmos 1703 Rocket 3.5 23:48:52 67° ESE 23:48:56 67° E 23:53:20 10° NNE
Okean 3 4.4 23:50:46 36° E 23:50:46 36° E 23:54:31 10° NNE
Cosmos 1782 Rocket 3.7 23:46:37 10° N 23:51:04 62° ENE 23:51:22 60° E
Cosmos 1937 Rocket 4.3 23:49:39 28° WSW 23:51:55 46° WNW 23:56:55 10° NNE
Lacrosse 5 4.2 23:54:51 11° E 23:54:51 11° E 23:55:22 10° E
